Wind_Gust
8 8 11 15 18 17 15 13 17 20 14 12 11 15 17 16 18 15 14 19 17 13 17 25 26 27 27 20 22 21 17 17 17 16 15 17 18 21 20 20 20 19 22 16 15 16 15 14 13 13 13 13 12 11 13 13 12 13 15 12 13 10 11 11 12 12 12 10 10 6 9 8 8 9 8 8 8 8 7 8 10 8 8 8 8 8
6 6 18 19 19 18 18 16 14 13 11 8 14 17 22 9 18 21 17 10 11 17 14 14 19 22 29 18 20 16 18 24 24 19 17 20 20 21 23 21 21 21 11 10 9 10 10 10 11 13 14 14 16 14 13 15 16 14 12 13 12 11 12 12 12 13 12 11 13 11 12 7 9 10 10 10 11 10 9 8 9 8 8 8 8 9
9 19 24 17 19 14 16 16 14 13 16 7 14 15 15 21 14 23 14 10 9 9 17 7 14 23 26 17 15 23 30 32 27 25 28 26 23 20 21 21 20 14 14 14 15 14 15 14 13 14 14 16 19 17 17 15 13 12 14 14 12 12 13 14 13 13 13 12 9 10 9 10 8 9 10 8 9 9 10 10 8 8 9 9 9 9
14 18 28 23 11 12 18 18 17 16 8 13 16 19 25 16 9 22 15 6 5 20 9 11 15 20 12 8 19 29 30 24 22 23 20 21 24 23 25 25 23 20 18 19 20 20 17 16 17 15 15 17 15 15 14 14 16 15 15 13 14 15 13 13 15 16 13 11 8 7 8 8 9 7 8 8 8 10 11 13 12 12 10 10 10 9
24 24 12 10 7 12 19 21 17 16 19 11 14 17 20 15 15 19 18 9 6 8 3 7 8 16 11 12 14 16 12 14 17 15 13 14 19 23 21 18 22 25 23 21 19 17 17 18 20 21 19 16 18 18 18 18 18 17 17 16 16 17 17 14 15 15 11 10 8 8 4 4 4 4 5 6 7 10 12 11 9 11 8 8 8 8
20 28 10 16 17 11 13 16 22 17 16 19 13 20 22 18 19 15 11 8 15 13 9 10 14 15 11 13 24 17 18 21 16 18 22 21 15 13 16 21 18 19 20 25 25 25 24 23 19 16 16 17 17 19 19 18 18 15 15 14 14 12 13 14 14 14 13 13 13 12 12 11 10 10 9 13 16 13 15 13 7 8 11 9 9 9
22 17 11 19 20 13 12 18 20 15 19 14 22 14 20 17 14 13 10 8 6 12 10 3 13 23 13 10 14 15 20 26 16 22 26 21 19 19 22 21 22 22 19 17 18 18 18 18 18 18 19 20 20 20 15 15 15 15 14 14 15 14 14 14 14 15 15 13 13 15 16 15 16 15 14 9 9 10 9 5 7 9 9 10 11 10
13 12 8 7 7 10 11 16 17 17 15 18 17 13 7 8 9 12 10 13 17 7 7 6 9 13 16 20 10 19 20 21 17 19 22 23 22 23 22 21 19 22 21 23 21 22 22 21 23 24 23 21 24 18 14 15 15 16 16 14 15 14 14 14 15 17 17 17 15 14 13 14 14 15 14 11 11 8 7 9 10 8 9 10 11 12
7 9 7 10 8 9 13 13 14 14 21 21 17 12 14 15 15 10 8 12 9 3 20 15 4 12 16 19 8 10 14 14 19 23 25 25 25 25 25 23 20 20 22 23 22 21 21 23 22 21 21 22 17 16 18 18 17 16 15 14 13 15 14 13 14 17 17 17 17 16 14 14 14 13 13 9 8 8 8 8 8 9 9 10 11 11
13 13 13 11 9 16 13 12 11 14 12 16 12 4 5 5 7 5 8 7 6 9 17 11 7 17 22 14 15 5 10 20 27 28 28 27 29 30 28 24 20 15 16 21 24 24 24 23 23 23 22 17 18 18 16 14 13 14 13 14 14 16 15 14 14 16 16 16 15 15 14 15 14 11 9 8 9 9 8 10 10 9 9 11 12 12
17 13 9 16 15 14 10 13 12 11 18 5 5 9 9 10 8 7 8 7 6 14 18 14 10 12 29 17 17 12 18 22 22 18 21 18 19 22 22 22 19 20 21 21 19 18 21 21 22 19 18 18 14 13 14 15 15 14 15 15 16 18 16 15 16 15 16 15 15 16 15 16 15 12 11 10 10 9 8 11 10 10 10 10 11 12
13 11 19 16 12 14 8 16 8 9 5 5 12 10 10 14 15 7 10 8 15 26 13 14 11 11 17 18 14 15 11 11 22 22 25 23 25 27 23 22 20 21 23 22 19 17 15 12 13 13 15 14 15 13 15 15 14 15 16 16 17 16 17 17 17 16 17 16 16 14 14 16 16 13 13 14 13 12 12 11 12 9 8 9 9 9
13 22 13 14 11 15 16 10 16 6 4 7 8 12 7 18 15 18 8 15 15 27 13 5 9 5 16 24 23 10 14 15 16 22 28 28 27 24 22 23 23 24 22 20 20 18 17 20 20 18 18 14 14 18 18 18 17 17 16 18 19 19 18 18 16 17 17 15 16 17 16 15 15 14 14 14 14 11 12 11 10 9 11 8 9 11
20 13 12 16 15 15 11 17 14 15 10 10 11 10 11 14 13 18 17 13 15 18 14 14 4 15 14 20 16 21 22 14 14 19 19 26 29 27 26 24 23 22 20 20 20 21 21 22 21 21 21 19 18 17 19 18 17 17 17 18 19 20 18 16 15 17 17 17 17 15 16 15 15 15 15 14 14 12 12 11 11 13 12 12 14 13
14 24 20 13 18 10 21 23 23 22 11 19 11 18 17 18 22 22 17 21 21 21 13 6 8 19 7 15 6 15 14 12 12 14 14 16 23 23 21 20 19 18 17 20 20 21 22 23 22 22 21 19 18 18 18 17 18 17 18 19 19 18 16 16 17 15 17 18 17 16 16 15 13 14 14 14 14 13 12 11 11 11 11 14 14 15
17 31 22 14 10 11 13 14 16 11 14 14 11 13 10 20 14 24 21 15 15 15 15 11 21 12 18 9 10 7 12 11 7 9 14 14 12 13 15 19 20 21 21 19 19 20 21 21 19 18 17 18 17 17 17 17 17 18 19 18 20 20 18 19 18 17 18 18 17 15 15 16 14 13 12 12 11 12 11 11 12 12 13 16 14 10
10 28 17 20 14 13 19 12 11 13 20 15 11 16 20 16 17 13 9 6 5 10 27 12 20 16 16 10 6 9 10 12 9 9 13 16 17 17 21 21 21 21 21 20 21 21 20 15 15 17 18 17 15 15 19 20 20 21 19 17 18 17 15 18 20 20 18 18 16 17 16 15 14 15 14 16 14 13 11 11 12 13 13 14 16 13
18 29 9 14 23 20 19 18 15 15 18 13 16 20 6 7 10 17 20 11 11 19 30 6 15 12 8 27 10 5 7 15 10 12 10 11 13 19 21 21 22 23 24 22 22 21 20 20 20 18 17 17 19 19 18 19 17 18 18 18 19 18 18 18 19 19 18 17 16 15 15 15 16 16 15 14 14 13 11 11 11 15 18 22 18 12
21 35 18 13 21 18 10 7 9 11 14 22 23 11 21 16 13 11 15 18 13 23 25 12 9 15 16 18 9 10 12 15 15 12 8 11 13 17 16 17 19 21 19 19 18 18 16 17 18 19 18 18 17 17 17 17 16 15 14 16 18 20 20 19 18 15 15 15 15 15 16 15 16 15 14 14 13 12 12 13 15 20 24 20 11 12
16 30 26 9 12 13 11 10 20 15 12 15 5 8 6 13 12 14 27 15 16 15 8 19 4 31 19 20 23 23 21 22 18 9 13 17 20 19 17 18 21 20 20 20 19 19 20 19 19 19 19 18 18 17 16 14 13 15 16 15 15 14 11 11 13 14 15 16 15 14 12 13 14 14 14 14 13 14 13 17 18 19 19 19 13 12
15 8 32 17 12 8 20 16 17 15 15 14 16 13 11 16 10 9 9 17 17 21 17 20 26 20 16 17 25 27 25 24 22 22 19 18 17 16 17 21 21 21 20 20 21 21 21 20 19 18 17 18 15 11 11 13 16 16 13 14 15 16 15 15 16 15 16 15 16 14 15 15 14 14 14 12 13 14 14 16 17 17 21 18 15 13
12 12 18 15 17 17 21 16 15 17 18 19 25 25 17 11 12 12 25 9 14 21 26 17 38 20 20 10 22 26 27 24 21 23 21 17 16 16 16 16 19 19 18 20 20 20 20 18 18 15 12 8 10 11 12 13 11 12 15 16 16 14 14 15 15 16 16 15 16 16 16 15 13 14 13 13 13 14 17 18 18 17 20 18 21 23
11 11 10 17 14 14 16 18 12 10 13 21 23 22 20 16 15 17 22 16 11 19 12 12 17 20 17 12 15 19 20 19 18 16 17 17 16 14 15 15 15 20 21 20 20 20 20 19 18 18 17 16 16 16 14 12 14 16 16 15 14 16 17 17 17 16 15 15 15 16 15 13 13 12 13 14 15 18 19 20 18 18 20 22 23 25
12 14 16 16 13 13 16 14 16 12 11 14 12 12 20 19 16 21 23 18 21 11 12 12 22 25 13 11 14 17 20 21 18 19 20 19 17 14 14 13 15 14 15 16 18 17 19 19 16 15 13 14 13 13 16 18 17 15 13 15 15 18 17 15 14 14 14 14 15 14 13 14 13 13 13 14 16 19 21 21 20 19 17 14 14 26
21 14 7 18 29 29 17 18 23 15 15 15 16 19 14 17 16 16 10 7 19 15 15 15 29 12 15 17 15 16 19 16 17 18 20 22 17 17 17 17 18 17 16 16 18 20 18 15 17 19 18 19 19 17 17 16 15 15 15 14 16 18 15 14 13 13 14 14 14 13 14 14 13 14 14 15 17 19 20 21 23 22 21 25 23 20
10 14 16 20 22 24 27 20 18 20 26 25 10 21 24 18 18 22 17 18 21 13 12 17 19 18 23 16 23 22 23 23 18 17 15 17 21 21 17 17 17 17 21 22 21 16 18 21 21 18 18 19 19 19 18 17 16 15 14 17 17 17 13 14 13 13 13 13 14 14 14 14 14 15 16 15 16 19 19 20 21 21 21 22 21 22
12 11 10 14 13 16 17 15 13 16 20 29 25 17 21 20 14 10 11 14 22 11 17 17 15 16 27 27 22 24 22 24 22 20 18 19 18 19 18 18 18 20 21 22 21 22 18 16 20 22 22 22 19 16 17 18 18 17 15 15 14 13 14 14 14 13 13 12 12 12 14 14 16 15 14 15 16 17 18 18 20 21 20 18 20 21
10 13 8 11 12 17 15 14 15 17 21 24 26 30 23 18 17 17 15 22 11 17 29 13 7 19 28 27 19 23 26 22 20 19 19 19 18 19 20 17 14 17 16 16 16 17 21 21 20 19 20 18 18 16 15 14 16 17 16 17 15 14 13 14 14 14 14 13 13 14 15 16 14 13 14 13 14 17 18 19 19 19 18 17 17 19
9 11 9 18 16 16 14 17 13 18 16 20 24 27 27 22 18 19 23 15 9 17 30 18 19 20 27 24 17 19 20 20 21 20 21 20 17 14 14 15 17 16 13 15 18 19 20 20 20 19 18 19 16 16 16 15 13 10 10 11 11 12 15 13 14 14 14 13 15 17 16 12 11 11 11 12 14 16 17 19 19 16 15 16 15 14
11 11 9 14 20 18 15 15 17 17 19 19 19 23 23 23 23 22 21 19 17 19 17 20 23 27 26 26 19 18 18 17 18 19 21 18 18 20 18 16 15 14 15 18 19 19 19 20 19 19 19 17 18 18 16 15 13 13 14 14 12 12 11 13 13 13 13 15 17 14 11 12 11 12 12 13 16 17 17 17 16 15 15 15 14 13
9 22 16 15 17 21 11 11 13 15 15 22 20 20 25 23 22 23 23 21 18 21 22 19 20 30 23 9 13 11 15 21 19 18 18 19 20 21 17 17 17 17 17 17 18 17 17 17 17 17 18 19 19 19 17 16 14 12 12 12 11 12 11 13 13 14 15 18 16 13 11 12 13 13 14 15 13 14 16 16 15 15 14 13 13 14
7 13 7 10 15 27 12 12 16 17 18 19 23 23 24 23 24 22 29 18 17 24 19 18 21 31 21 15 16 18 18 17 17 15 15 18 18 17 11 13 18 18 18 18 17 17 17 16 14 14 17 16 15 15 15 15 14 13 14 13 13 15 11 12 12 14 16 16 12 11 13 14 13 13 14 13 14 15 16 15 15 15 15 14 13 13
10 11 12 7 14 25 19 10 13 10 17 25 27 29 27 22 22 27 25 19 25 19 20 24 31 26 25 21 24 26 20 17 22 17 13 16 16 11 10 13 12 14 16 14 13 12 13 15 14 14 14 13 15 14 14 15 15 16 15 13 13 10 11 14 15 16 16 14 12 14 14 13 15 15 14 15 15 13 13 15 15 14 14 16 14 10
7 11 15 9 22 21 22 14 7 16 29 33 20 14 14 20 21 28 32 28 25 24 31 28 28 20 18 19 22 27 26 30 29 25 16 15 15 10 11 10 13 13 12 13 14 13 11 9 9 11 12 13 14 14 13 13 15 16 14 12 9 11 11 13 14 16 17 13 13 14 15 15 15 15 16 14 12 11 13 14 17 16 14 12 10 13
17 13 12 12 13 20 19 10 22 31 35 22 16 13 12 17 20 25 29 27 25 25 26 28 25 21 19 23 24 26 28 26 21 23 20 17 14 15 14 10 9 8 11 13 12 11 11 12 10 8 8 9 10 9 11 9 9 11 13 11 10 10 11 11 14 14 15 14 12 13 14 14 15 16 14 12 12 12 13 15 13 12 13 14 15 15
14 18 16 14 13 12 17 17 35 27 11 11 21 20 17 22 21 22 28 26 23 22 27 33 33 30 24 23 22 22 23 23 18 20 23 22 21 22 20 18 13 13 12 13 11 10 11 12 13 12 10 7 9 10 10 11 11 14 14 12 12 11 10 11 11 14 14 15 13 15 16 16 17 15 12 12 12 13 14 14 15 16 13 12 12 10
18 10 9 19 12 25 21 26 33 18 32 26 32 30 28 30 18 20 32 30 17 19 21 27 29 25 22 21 23 23 18 16 17 23 21 26 25 25 26 24 22 19 16 14 16 13 11 9 10 11 7 8 8 11 10 9 10 12 12 12 13 11 10 10 11 12 13 15 14 15 15 16 17 15 13 13 13 14 15 15 14 12 12 13 13 13
15 20 15 18 20 18 20 30 32 21 36 36 24 11 7 10 16 16 22 39 22 18 21 24 26 24 22 21 20 19 14 15 23 31 22 19 26 26 24 25 25 24 22 19 15 15 14 9 6 5 9 8 7 7 8 8 11 10 10 10 9 10 10 9 12 12 13 16 15 14 15 16 17 16 14 14 16 16 15 13 11 13 15 16 15 15
8 14 10 20 18 7 13 26 36 32 38 24 26 12 9 9 11 12 16 35 26 19 21 22 25 24 22 23 24 16 17 24 31 30 18 20 21 26 27 29 31 30 33 35 31 26 25 22 19 18 15 12 11 6 8 8 10 11 9 8 6 8 9 11 12 11 13 16 14 13 14 15 15 15 15 16 16 15 14 15 17 16 15 16 15 16
9 8 12 15 21 26 21 28 32 31 41 21 13 9 11 12 14 13 25 30 20 20 21 21 25 24 20 22 24 28 31 31 31 25 16 22 28 29 32 30 25 25 26 28 30 32 32 29 25 18 19 20 23 20 21 20 20 13 13 6 12 10 9 12 13 12 13 11 9 12 13 13 14 13 15 16 13 12 14 14 13 14 16 14 13 13
8 9 12 22 23 25 26 36 29 35 35 27 27 13 11 15 16 24 39 32 18 21 17 19 22 21 21 21 25 32 31 32 27 24 25 23 19 17 19 22 26 28 28 26 27 21 25 23 23 26 22 19 20 16 16 16 17 15 12 11 9 6 8 8 7 8 10 9 9 11 13 12 14 16 15 14 14 14 13 14 15 13 13 13 11 10
7 8 10 10 20 24 24 32 37 32 33 22 16 14 10 14 31 29 34 16 19 22 18 13 21 23 17 17 25 30 28 23 23 23 24 26 29 26 24 22 20 17 16 17 17 17 17 19 15 16 15 11 16 14 12 14 15 11 9 8 8 9 10 10 9 8 10 9 12 13 14 14 14 15 16 11 12 13 14 12 14 14 14 12 12 13
19 18 14 15 15 19 22 28 28 34 20 11 14 7 10 27 30 26 21 24 20 23 20 20 16 20 16 22 21 22 24 26 25 22 21 23 25 26 23 18 20 20 19 15 15 14 19 16 16 18 17 14 15 15 13 15 14 10 8 6 7 10 9 10 7 5 6 6 9 10 11 11 12 13 11 13 14 15 14 12 12 12 11 12 12 13
10 20 23 17 19 28 25 33 36 19 11 13 16 18 15 25 18 21 20 29 27 19 19 20 21 16 19 20 23 24 24 23 25 24 22 20 20 22 20 17 17 17 17 19 21 18 18 17 16 18 12 14 14 13 12 17 14 11 11 9 9 8 6 6 4 6 6 6 7 8 10 10 10 10 9 12 13 13 13 12 12 11 13 12 14 14
15 21 14 19 12 23 29 25 22 21 22 17 17 19 20 22 20 19 21 25 28 27 14 19 22 19 17 18 20 20 22 19 20 21 23 23 23 23 23 20 20 21 20 20 19 18 17 21 20 17 13 12 12 13 14 14 16 12 12 9 6 6 8 7 7 8 8 6 5 7 7 7 8 10 10 12 15 15 13 12 11 13 9 11 11 11
8 12 8 13 29 21 31 34 32 31 29 29 22 16 21 20 19 19 19 25 20 21 19 21 21 21 20 17 22 22 20 18 22 25 18 18 18 19 16 17 14 15 17 17 14 14 16 19 18 18 16 11 12 13 12 15 19 19 18 9 8 8 8 9 10 10 8 7 6 6 7 9 8 7 7 7 8 9 14 16 15 14 12 11 11 10
10 10 14 23 14 15 35 11 19 26 22 22 24 19 20 24 23 20 22 24 23 21 23 20 20 20 20 19 19 21 24 21 20 20 18 17 16 14 15 17 17 18 22 22 20 15 18 19 20 18 18 16 10 12 11 13 16 18 13 13 12 10 8 10 11 9 8 9 9 8 10 12 10 9 7 8 9 8 8 7 9 10 10 11 11 9
19 9 21 21 16 24 40 24 29 28 27 25 23 25 24 22 21 16 18 18 19 18 17 20 19 19 15 17 17 17 21 19 19 20 17 13 12 11 12 12 14 12 17 18 15 15 16 17 18 20 17 18 15 12 13 12 12 11 11 10 10 10 10 9 10 11 9 8 7 8 8 10 9 12 10 8 10 9 8 10 10 11 12 15 15 14
15 14 24 11 21 25 21 23 26 25 24 23 21 18 19 17 16 16 15 15 16 18 18 18 15 18 15 18 15 13 15 17 17 17 15 12 12 14 14 12 10 11 13 13 12 12 17 17 21 20 19 18 14 12 10 9 9 11 11 11 9 9 11 10 7 9 9 8 8 8 6 8 7 8 10 8 8 6 9 13 13 14 13 11 10 15
12 28 24 15 28 33 33 33 11 24 31 17 18 17 17 16 14 17 17 16 17 19 19 20 19 17 17 18 15 9 10 13 15 14 13 15 16 14 11 16 10 13 11 11 14 13 15 12 18 20 20 15 12 11 11 9 9 9 10 11 10 10 13 10 9 8 8 9 9 8 8 8 8 6 7 8 7 8 6 6 5 9 13 12 10 12
26 27 18 28 31 39 24 18 14 17 21 21 23 21 18 16 13 16 20 21 20 18 18 18 20 19 19 18 11 10 10 11 14 16 11 8 8 11 16 16 12 11 11 14 14 12 15 15 15 15 15 11 12 14 11 8 8 7 8 10 10 12 12 12 10 9 9 8 9 9 9 8 8 7 7 7 8 8 7 7 6 5 8 11 9 12
Wind_Speed
0 3 5 8 9 6 5 8 7 2 2 1 1 0 5 4 9 8 6 7 3 0 8 11 14 15 18 10 5 4 5 5 6 7 8 8 8 7 7 7 7 7 10 3 5 6 7 7 6 6 5 6 5 6 7 7 7 7 7 7 9 6 7 6 6 6 6 5 4 2 3 3 5 4 4 4 4 4 3 4 5 5 5 5 5 5
3 4 10 10 8 7 6 3 2 2 1 3 3 3 7 3 9 11 6 6 1 4 4 2 7 12 19 3 3 4 5 12 13 11 10 11 11 8 8 10 10 10 2 3 2 3 4 5 6 6 6 6 8 7 7 9 9 8 7 8 7 6 8 7 6 5 4 4 5 5 6 4 5 5 5 5 5 5 5 5 5 5 5 5 5 5
4 9 14 6 4 3 3 3 3 3 2 0 3 1 3 9 6 15 8 6 2 4 9 1 6 13 17 3 3 9 13 12 14 15 17 15 12 10 9 10 11 6 6 5 5 4 6 6 7 7 7 7 8 8 8 8 7 7 8 7 7 6 9 8 7 5 5 3 3 3 3 4 3 3 4 3 2 4 5 5 5 4 4 4 4 5
7 9 12 7 5 5 2 2 2 0 0 3 1 1 7 4 2 9 3 2 1 5 3 3 7 10 6 2 6 10 11 7 6 11 9 7 11 12 15 13 11 10 9 9 8 8 7 8 7 7 7 8 7 6 7 7 9 7 7 7 7 8 7 9 8 7 5 2 1 0 1 2 3 1 3 4 3 3 4 5 5 4 4 3 4 5
13 6 1 6 4 4 3 1 2 1 7 3 4 5 6 6 7 9 7 3 1 4 2 3 3 7 7 6 5 7 7 6 6 5 8 7 6 6 3 4 9 11 10 9 8 7 8 9 10 10 9 7 8 8 9 9 9 7 8 8 8 7 8 8 10 8 5 4 4 2 2 2 1 1 2 2 2 3 4 3 4 4 4 4 5 4
13 10 2 5 1 2 3 5 4 3 3 5 6 12 11 10 7 6 6 5 5 5 3 6 2 4 5 6 10 4 0 10 7 7 12 13 8 6 9 11 8 9 8 10 11 10 10 9 8 7 8 9 9 9 9 9 9 8 8 7 7 7 7 8 8 7 5 5 5 5 5 4 3 4 3 4 2 2 2 3 2 3 4 5 5 5
8 1 6 6 6 4 2 4 3 7 5 0 8 9 9 7 6 7 5 2 2 4 2 0 7 6 5 3 7 3 4 10 1 9 13 10 10 10 11 12 10 11 9 8 7 4 7 8 9 9 10 11 10 10 7 8 8 9 8 8 8 8 8 8 8 7 7 6 5 7 6 5 4 4 3 2 1 1 2 2 3 4 4 5 6 6
1 2 3 2 3 4 3 5 4 9 4 4 6 2 0 2 4 7 4 6 7 1 2 2 2 3 4 7 3 2 4 6 4 9 12 10 11 13 12 12 11 11 11 11 11 10 10 10 12 14 13 11 12 8 7 8 7 9 9 9 8 7 7 7 7 8 8 8 7 7 6 5 6 6 5 2 2 2 3 4 5 4 4 5 6 6
4 1 3 3 4 4 6 6 4 6 6 5 6 1 5 4 6 5 3 6 3 1 10 3 0 1 4 7 3 1 2 6 10 12 14 14 13 14 14 13 13 12 13 12 11 12 12 12 13 11 11 11 8 8 9 9 9 8 7 8 8 8 7 6 7 8 8 8 7 7 6 6 5 5 5 3 3 3 4 4 4 5 4 5 6 6
2 4 6 6 4 6 6 6 5 9 1 6 5 1 1 2 3 1 2 3 2 1 8 3 2 3 7 5 2 3 1 6 10 13 14 15 15 15 15 15 13 8 8 10 13 13 13 12 12 12 8 7 10 9 8 7 6 6 6 7 9 10 9 7 8 8 8 8 7 7 7 8 6 5 3 3 4 4 4 4 4 4 5 5 5 6
3 3 5 3 4 5 5 7 6 7 10 1 2 5 4 3 3 3 4 3 2 4 6 5 7 5 8 5 8 5 7 10 10 7 7 7 8 11 12 13 12 10 10 11 12 11 11 9 7 6 9 10 8 7 8 7 7 7 7 8 9 10 8 8 9 9 9 8 7 7 7 8 7 6 4 4 4 3 3 4 4 4 5 5 5 5
6 2 1 3 2 1 2 4 0 3 1 1 0 1 5 8 6 0 2 3 2 7 2 5 5 6 6 4 6 8 4 4 8 9 11 10 12 13 13 12 12 10 10 10 10 10 8 6 6 7 8 8 9 8 9 8 7 8 8 8 9 8 9 8 8 9 9 8 8 7 8 8 8 7 6 7 7 6 5 5 5 4 3 4 5 5
4 9 2 5 2 9 1 1 7 1 2 3 2 1 2 5 4 5 1 4 5 7 1 0 4 1 7 8 4 5 9 9 8 9 11 10 11 12 12 14 12 10 9 10 11 10 8 10 10 10 10 8 10 11 11 11 9 9 9 10 10 10 9 9 9 10 10 9 9 9 9 9 7 7 7 7 7 6 6 6 5 4 5 4 4 5
8 3 1 5 2 6 6 5 4 5 4 6 5 4 4 1 2 5 6 2 5 6 5 5 2 4 4 10 8 12 14 10 8 10 10 7 8 8 9 9 8 9 11 12 11 11 11 11 11 12 11 11 10 10 11 11 10 9 9 10 11 12 9 8 9 9 10 10 10 9 9 9 8 8 8 7 7 6 6 6 6 6 6 6 7 6
6 9 6 4 2 2 9 11 13 11 6 8 3 9 8 7 4 6 4 6 8 8 1 2 2 5 3 5 2 9 8 5 6 7 7 8 9 6 5 6 7 7 8 10 11 12 12 12 12 12 12 11 11 12 11 10 10 9 10 10 12 11 9 9 10 9 10 9 9 9 9 8 7 7 7 7 6 5 6 5 6 5 4 5 6 6
8 9 6 4 2 4 7 6 5 1 2 2 3 5 3 7 6 8 7 5 3 2 3 2 5 5 7 3 6 4 7 7 5 6 4 8 7 6 6 8 10 12 12 11 12 12 12 12 12 11 10 11 10 11 10 11 11 11 11 11 12 12 11 11 11 10 10 10 8 8 9 9 8 7 6 6 5 5 6 5 5 4 2 4 5 6
3 5 3 6 2 4 6 2 1 5 1 2 3 3 8 3 5 2 3 1 3 2 8 1 5 5 7 6 3 5 5 8 6 4 1 3 3 5 7 8 9 10 11 11 12 13 13 10 10 10 11 10 9 9 12 13 13 14 12 11 11 10 8 10 11 11 9 9 8 9 9 8 8 8 9 8 7 7 5 5 4 4 4 9 9 7
6 11 3 5 15 6 3 5 3 5 4 5 0 8 1 2 4 3 5 1 1 5 7 2 7 3 1 7 5 3 5 10 7 8 4 2 2 5 8 8 10 12 14 14 12 10 12 13 13 11 10 10 12 13 12 12 11 11 11 12 12 10 12 11 10 10 9 9 9 9 9 10 10 9 9 8 7 6 5 5 6 9 11 10 7 6
2 9 2 5 6 6 6 1 3 3 4 10 9 3 1 4 4 2 2 4 2 6 5 3 2 4 6 7 2 3 6 10 11 8 5 5 4 8 8 8 7 4 3 6 9 9 10 11 11 12 12 11 11 10 11 10 9 9 9 10 11 13 13 12 10 10 9 9 8 8 9 10 9 8 8 7 6 6 6 7 10 11 8 3 5 7
1 4 6 2 4 4 3 1 6 5 4 2 1 1 0 2 4 3 6 3 3 5 2 7 1 8 7 6 9 10 10 11 10 6 8 11 10 9 9 9 8 9 9 8 8 9 11 11 11 12 12 12 11 11 9 8 7 9 9 9 10 8 7 7 9 9 10 9 9 8 7 8 8 8 8 8 8 7 8 10 11 9 7 8 5 6
3 1 5 6 6 3 3 3 0 2 3 6 2 3 2 1 2 1 1 2 4 4 4 4 8 3 6 8 9 11 11 12 12 11 10 11 11 10 7 7 7 9 9 9 9 10 10 10 9 9 9 10 8 6 6 8 10 9 7 9 9 10 10 10 10 10 10 8 9 9 9 9 9 9 8 8 8 7 9 9 8 8 7 4 6 6
2 4 4 5 6 3 7 3 1 2 3 2 1 2 5 5 5 5 9 2 1 2 5 2 12 2 8 3 9 10 12 11 12 12 12 11 10 9 7 6 7 7 8 8 9 8 9 8 8 7 6 5 6 7 8 7 7 8 10 10 9 9 9 10 9 10 10 9 9 10 10 10 8 8 7 8 8 6 10 9 8 8 6 8 7 7
1 2 1 7 3 6 6 11 4 6 5 1 5 6 4 6 4 2 3 5 4 3 1 1 4 7 6 2 6 8 5 4 5 5 10 8 8 8 7 5 5 7 8 8 9 9 9 9 9 10 10 10 10 9 9 8 9 10 10 9 9 10 11 11 10 10 9 9 9 10 10 8 8 8 8 9 10 11 13 11 9 7 8 8 7 7
2 1 4 6 5 7 8 7 0 5 4 7 5 6 8 5 4 1 4 6 2 5 3 2 3 6 4 6 7 9 9 10 8 5 11 9 5 5 6 7 8 7 7 6 5 5 6 6 6 7 8 9 8 9 10 9 8 8 8 9 9 11 12 10 9 8 8 9 9 9 8 9 8 8 9 9 10 14 13 10 8 7 8 8 6 7
4 2 2 6 7 8 3 7 3 5 6 5 2 2 5 5 5 3 1 1 1 2 1 1 6 2 7 9 8 10 13 11 10 11 5 9 7 5 5 4 4 5 3 5 8 7 5 6 9 11 10 10 9 8 8 8 9 9 9 8 10 11 10 9 8 8 9 9 9 8 9 9 8 9 9 9 10 13 12 11 9 7 8 7 7 8
1 3 2 2 4 7 8 6 5 6 7 5 2 2 4 8 8 9 4 5 3 3 8 3 5 8 11 10 14 13 15 15 10 9 9 7 7 7 6 6 5 4 6 5 4 5 10 10 7 6 8 8 9 9 9 9 9 9 8 10 10 10 8 9 8 8 8 8 9 8 9 9 9 10 10 10 10 12 12 10 9 8 7 8 9 8
0 0 2 4 5 7 8 6 2 0 4 5 9 5 1 3 1 2 0 2 4 5 8 7 7 9 15 18 14 16 14 13 12 10 10 10 11 11 6 5 5 6 5 5 5 4 3 4 10 11 10 10 10 9 9 10 9 9 9 9 8 7 8 9 9 8 8 8 8 8 9 9 10 9 9 9 10 10 10 9 9 9 9 8 9 8
1 1 4 5 6 9 6 5 4 1 4 7 9 12 2 2 3 2 2 6 0 6 13 1 2 9 16 18 12 13 16 11 7 7 8 9 10 10 11 7 4 4 4 4 5 7 11 12 10 10 11 10 10 9 9 9 10 10 10 10 8 7 6 7 9 9 9 8 8 9 9 10 9 8 8 8 9 10 10 9 9 9 8 7 8 8
0 3 4 3 5 6 4 4 4 3 4 6 9 12 14 4 4 4 4 7 3 4 12 11 11 12 14 16 10 9 11 9 9 10 7 5 3 6 8 7 5 5 5 5 7 8 9 9 11 12 11 11 9 10 11 9 8 7 6 5 6 7 7 5 7 8 9 8 9 10 9 7 7 7 7 8 9 10 10 9 9 8 8 7 6 6
0 4 5 2 3 3 6 7 5 7 5 6 8 11 12 9 8 7 9 7 10 10 11 12 14 18 14 16 11 12 8 5 7 7 7 7 7 5 4 8 8 7 6 9 9 10 10 11 10 11 11 10 11 12 11 9 8 7 7 6 6 7 6 7 7 7 8 9 10 9 7 7 7 7 7 8 10 10 10 10 9 8 8 8 8 6
3 5 1 1 2 5 7 7 8 9 9 12 11 10 10 9 8 7 8 8 8 10 13 13 13 17 12 6 8 7 8 6 6 7 8 8 7 3 2 4 7 9 8 8 6 8 8 7 8 8 10 12 13 13 11 8 6 5 5 5 6 6 6 7 7 7 8 10 9 7 6 7 7 7 8 8 8 9 10 10 9 9 9 8 7 8
1 4 3 2 6 7 5 8 10 9 7 9 12 11 10 10 11 8 8 6 7 9 10 10 11 14 11 4 10 12 11 12 11 9 7 8 6 5 0 2 5 7 8 8 7 6 6 7 8 9 11 11 9 6 6 7 6 6 7 6 6 6 5 6 6 8 8 8 6 6 7 7 7 8 8 8 9 9 10 9 9 9 9 8 8 7
3 1 1 1 2 6 12 6 5 4 4 7 9 15 18 14 10 12 13 12 12 11 9 7 13 13 15 12 11 14 12 11 14 11 9 8 6 6 3 3 4 5 7 8 7 7 7 8 8 9 7 5 7 8 9 7 6 8 8 7 5 6 6 7 7 7 7 6 6 6 7 7 8 8 8 9 9 8 8 9 9 9 9 10 9 6
4 6 6 2 3 5 9 3 1 1 6 10 8 6 7 9 11 13 13 13 11 5 9 9 10 6 4 9 11 14 14 14 16 16 11 9 6 7 7 4 4 3 3 5 7 7 5 4 4 6 7 7 6 6 4 5 7 6 4 5 6 7 6 7 7 7 7 6 7 7 7 7 8 9 9 8 7 7 8 9 10 10 9 7 6 8
4 4 5 3 3 6 3 3 1 3 11 8 5 7 5 9 10 11 11 8 9 8 8 12 13 14 12 10 13 15 15 15 14 15 14 9 8 8 10 7 6 4 3 1 3 4 6 7 5 5 5 5 6 4 5 4 4 3 3 4 6 6 7 7 7 7 7 7 7 6 7 7 8 8 7 7 7 7 8 9 8 8 8 8 9 9
5 6 1 1 2 2 3 1 2 8 5 6 13 12 7 2 5 4 9 10 10 11 12 14 16 15 14 14 13 12 13 14 12 9 13 14 12 11 9 9 8 7 7 8 7 2 3 3 7 8 6 4 6 6 6 6 5 6 5 4 5 5 5 5 6 6 5 6 6 7 7 7 7 7 6 7 7 8 8 8 9 10 8 7 7 6
10 3 3 4 2 4 3 4 8 4 12 11 8 2 1 1 3 1 6 5 4 5 8 11 14 14 14 13 13 13 11 9 9 12 11 12 12 11 11 10 9 10 7 7 10 9 6 2 2 3 3 4 5 7 7 6 6 7 7 6 5 5 3 3 4 4 4 5 5 5 6 7 8 8 7 7 8 9 9 9 9 7 6 7 7 7
6 9 4 5 4 6 7 5 4 2 3 10 3 2 1 0 2 2 0 13 4 7 8 9 13 14 14 13 12 11 5 6 11 13 12 11 12 13 11 9 8 5 4 6 4 8 10 7 1 3 2 5 4 4 5 6 7 7 5 4 4 4 2 2 4 4 4 6 5 6 6 7 8 8 8 8 9 10 9 8 6 8 8 9 9 8
4 6 5 9 3 2 2 4 4 5 8 9 6 2 1 1 7 4 4 10 2 3 4 6 8 9 9 9 11 9 6 9 13 12 8 6 9 9 11 12 12 11 11 10 9 8 8 11 9 8 6 7 7 3 6 6 7 7 6 4 3 2 0 2 3 2 3 4 3 4 5 6 7 7 7 8 9 9 9 9 9 7 7 7 7 8
4 5 5 5 8 6 6 6 8 4 8 6 3 1 5 8 3 1 4 6 1 8 5 10 11 11 10 9 8 9 7 10 12 9 6 8 9 12 14 14 11 11 12 13 14 15 14 15 15 10 11 13 15 13 13 11 9 8 6 3 4 2 2 3 2 2 3 4 4 4 4 4 6 7 8 9 8 8 9 7 6 8 8 7 7 6
2 1 6 13 9 9 9 7 4 6 7 10 9 6 7 1 1 2 7 7 2 6 5 6 11 12 9 10 7 9 9 9 12 13 16 15 12 11 9 11 13 14 15 12 13 11 11 12 14 16 15 11 9 7 7 8 10 10 8 7 6 5 4 4 2 1 2 3 5 5 5 5 7 8 8 7 7 7 6 7 8 7 8 8 6 5
1 1 2 2 7 8 6 7 10 8 8 6 3 3 1 3 2 6 5 4 11 14 11 8 12 13 10 9 7 7 11 12 12 10 11 15 17 17 13 12 13 12 7 6 6 5 7 11 10 7 6 7 9 8 7 9 9 7 5 4 3 4 3 3 2 1 1 2 3 4 4 5 6 5 6 5 5 7 7 7 7 8 8 6 6 7
6 4 4 5 2 2 5 7 5 9 1 3 2 3 1 1 5 3 9 14 10 12 13 13 10 12 9 12 8 8 11 13 13 11 9 13 15 17 16 12 11 11 10 8 7 7 8 9 10 11 11 8 9 8 8 10 9 7 5 4 3 2 1 2 2 3 1 1 2 3 5 5 6 6 5 6 7 8 8 6 7 6 6 7 6 6
4 4 2 4 5 5 6 7 7 5 2 3 3 1 3 5 7 8 5 13 14 10 11 11 12 8 9 10 13 12 9 11 14 13 13 13 13 14 14 12 11 11 11 10 11 11 12 10 9 11 8 9 9 8 8 10 9 7 7 6 4 2 3 4 3 3 2 2 4 4 6 6 5 5 5 6 7 7 7 7 6 6 6 6 6 5
4 7 4 5 3 5 6 6 6 4 3 4 3 6 7 7 4 6 6 11 13 13 8 10 13 11 9 11 13 13 13 10 11 11 12 15 15 15 15 13 12 12 12 12 10 10 10 13 13 11 8 7 8 7 8 8 10 7 4 2 2 2 3 4 4 3 2 1 2 3 4 4 4 5 5 5 6 6 6 5 6 6 4 6 5 5
4 5 3 1 7 4 7 11 8 9 12 15 11 5 4 6 7 7 9 11 9 10 10 10 13 13 13 11 13 13 12 12 11 12 11 12 12 12 11 10 9 7 5 4 5 8 9 11 12 12 11 7 8 8 8 8 9 8 8 5 5 5 4 6 6 5 3 3 2 2 2 3 2 2 3 4 5 5 5 6 6 5 5 4 4 4
4 3 2 7 1 3 10 3 5 8 7 5 6 5 5 8 12 10 9 9 10 9 11 11 11 13 13 12 12 13 15 14 13 13 12 11 10 9 10 9 8 7 8 7 5 6 9 11 11 12 12 11 7 7 6 8 8 11 7 7 6 5 5 6 7 6 4 4 4 4 4 5 4 4 3 3 3 3 4 5 5 6 6 5 5 4
8 4 9 11 9 10 16 11 7 3 5 4 6 10 12 14 14 10 7 7 9 10 10 13 12 12 10 10 9 10 13 13 13 13 11 8 7 6 6 8 3 3 3 5 6 7 6 6 9 11 12 11 8 6 7 8 8 6 7 6 6 5 6 6 6 7 6 5 5 5 4 5 6 7 5 3 4 5 4 4 5 6 6 7 7 6
4 3 6 3 5 11 12 12 9 13 13 13 13 11 11 10 10 9 7 9 10 11 12 12 10 11 10 12 9 6 9 11 11 12 10 5 5 3 3 5 7 1 8 9 5 6 7 8 8 5 4 5 5 7 6 5 5 6 7 7 5 5 6 6 5 6 6 5 5 5 4 5 5 5 6 5 4 4 3 4 5 5 4 3 5 6
4 12 4 2 11 14 14 11 2 7 12 7 5 7 9 9 6 9 9 10 11 12 12 13 12 10 10 11 10 6 5 7 10 9 8 5 5 4 2 1 4 3 2 3 4 7 8 8 8 5 0 2 1 1 1 1 3 5 6 6 6 5 7 6 5 5 5 5 6 5 5 5 5 4 5 5 4 3 3 3 3 3 4 3 1 3
12 10 7 11 12 16 12 8 6 10 12 11 11 11 12 10 7 9 11 13 13 12 12 12 13 11 10 12 7 6 4 3 6 10 8 5 5 4 4 1 1 1 1 4 5 5 6 5 7 6 4 0 1 2 3 3 4 4 4 5 5 6 7 6 6 5 5 5 5 5 5 5 5 4 4 4 5 5 5 4 3 4 4 4 4 3
Wind_Direction
174 249 240 230 236 215 219 201 213 225 181 172 108 172 264 263 276 271 259 253 146 82 238 213 223 240 257 239 219 188 177 218 228 217 215 223 223 217 222 227 224 219 236 195 189 184 185 178 179 181 177 174 174 178 179 183 189 185 181 172 185 171 151 152 155 160 160 149 140 157 170 190 186 187 195 207 200 185 180 196 200 186 186 172 162 157
50 261 249 232 233 212 221 217 245 282 322 265 290 277 292 208 269 277 287 300 163 167 292 211 237 253 257 268 213 167 180 216 210 212 218 219 218 215 213 226 224 225 157 151 147 179 169 172 171 172 181 172 177 195 185 190 191 185 178 185 180 163 165 167 173 169 175 160 172 167 193 173 168 183 192 201 204 195 185 189 205 204 195 184 176 165
260 248 253 231 214 193 196 181 179 197 239 250 230 289 327 275 241 275 273 286 249 138 261 155 210 247 255 224 231 190 202 220 207 203 208 202 208 210 211 221 233 222 215 200 200 174 184 180 176 177 183 189 194 184 191 199 192 185 182 184 176 168 171 174 179 183 185 195 188 150 161 155 140 220 208 198 164 180 184 190 197 204 205 202 196 192
277 265 263 243 172 194 258 147 159 132 123 209 207 310 249 238 51 304 271 343 162 169 242 201 207 264 282 238 233 224 210 236 221 223 228 210 209 205 207 207 217 222 217 214 196 188 181 183 183 185 187 190 187 184 189 196 201 194 191 181 173 172 167 177 190 197 205 180 118 72 75 99 94 185 210 220 201 194 193 203 198 214 206 201 207 206
225 223 182 88 124 165 210 208 162 240 292 221 187 212 252 262 231 186 265 357 352 293 100 73 12 318 289 258 263 254 233 266 245 229 239 231 217 219 225 219 218 221 216 217 209 186 179 183 190 191 192 182 187 191 192 192 197 195 195 187 176 170 174 177 191 197 180 152 133 129 67 91 126 332 136 151 203 202 207 203 204 214 210 198 209 198
264 252 210 276 217 172 220 289 247 167 249 304 213 202 221 246 262 235 280 345 11 335 270 162 303 281 272 267 250 304 204 230 226 211 232 227 212 191 201 218 213 220 213 213 215 200 185 183 179 189 191 191 196 195 195 193 193 191 191 183 178 175 176 182 188 182 159 174 166 167 189 204 207 233 229 236 241 218 220 240 192 212 222 220 213 206
231 259 168 221 237 237 191 224 217 150 207 15 274 184 221 243 247 262 266 98 298 238 281 57 186 265 325 288 247 243 231 241 219 226 237 232 223 213 213 216 205 204 206 212 221 199 175 184 180 189 193 196 196 203 185 185 192 192 185 183 182 184 186 184 178 168 164 158 169 189 200 199 201 224 238 192 128 163 169 185 200 202 208 227 220 217
168 298 196 221 186 210 205 263 228 168 148 232 248 263 209 213 229 246 221 187 234 270 296 40 125 217 294 281 284 299 231 260 278 252 245 234 225 224 222 216 208 202 198 198 205 202 199 188 187 192 195 193 199 188 181 185 184 191 187 178 186 191 192 189 171 172 175 178 176 178 193 195 202 212 229 157 150 149 216 229 230 220 213 227 229 221
162 180 179 215 207 195 221 210 210 155 148 213 266 325 296 272 255 261 210 219 233 340 275 325 300 280 255 261 322 35 225 269 253 240 238 231 226 224 224 223 216 205 197 192 195 201 201 197 197 194 191 196 183 180 189 194 189 184 181 179 182 191 194 188 179 177 182 182 182 186 184 200 207 202 212 164 160 168 198 206 222 229 234 229 233 229
268 205 208 176 149 235 226 244 175 160 137 272 245 76 87 72 64 70 169 193 297 197 264 249 184 222 279 278 332 343 221 276 255 249 240 229 224 221 217 224 220 205 197 196 201 202 203 203 199 195 180 165 188 188 190 192 180 176 172 181 184 195 194 184 183 181 185 186 179 183 192 203 210 198 184 162 175 178 173 209 214 222 231 232 230 225
256 353 154 117 203 212 198 233 177 182 216 185 17 309 325 25 8 18 80 109 64 253 251 213 214 179 280 250 193 143 214 205 236 271 270 250 238 238 233 225 216 201 194 196 200 203 205 204 194 160 176 181 173 177 179 183 187 181 181 185 191 198 193 189 187 183 188 188 186 193 196 205 211 202 185 194 213 191 192 217 219 210 223 225 225 224
285 339 283 248 248 194 151 283 237 206 233 213 243 182 3 315 3 37 333 46 199 269 269 242 210 166 212 290 279 238 271 240 203 223 242 241 225 222 220 219 214 202 197 194 193 202 194 166 171 167 183 172 174 169 180 185 181 185 190 190 198 198 196 192 189 187 191 188 193 196 196 204 209 198 194 205 213 203 214 220 228 219 218 230 228 220
298 248 229 296 230 183 148 228 291 34 78 117 90 58 270 273 13 299 5 271 206 225 248 54 149 42 249 234 226 261 254 251 221 225 233 231 231 222 217 214 206 198 185 187 194 193 184 184 178 184 188 171 176 183 182 185 183 185 189 192 198 208 196 195 189 192 193 191 194 197 199 204 200 199 200 203 208 199 206 212 217 201 217 218 224 223
275 283 332 261 313 201 163 203 285 307 218 161 192 178 175 253 257 250 268 226 308 285 252 184 307 269 253 294 223 233 250 236 228 236 246 250 249 237 222 218 203 190 188 190 188 189 188 189 189 191 186 187 185 183 184 184 184 187 189 192 198 211 197 195 194 196 196 198 197 196 199 202 197 200 201 206 207 197 198 197 209 207 210 210 216 212
308 325 276 155 271 212 181 199 206 216 165 202 147 156 185 163 162 257 197 240 241 229 280 254 106 228 127 237 249 220 248 260 240 245 254 251 252 256 243 218 190 182 191 187 188 190 190 192 190 189 190 192 190 185 182 183 187 184 194 193 199 204 198 195 200 198 202 203 198 197 199 199 197 203 200 208 206 193 192 194 202 212 210 214 220 210
227 235 247 222 2 137 183 228 219 157 331 239 162 73 73 225 142 235 195 191 242 297 314 187 204 187 181 249 276 269 291 284 242 244 241 262 263 239 220 199 195 192 185 185 190 192 193 191 192 190 191 194 191 185 183 185 183 188 197 197 201 201 194 194 199 203 204 206 199 198 198 200 198 202 201 207 201 199 190 188 190 203 255 280 261 234
355 273 273 304 130 172 231 31 257 128 213 266 113 205 222 147 145 284 23 20 102 34 252 171 313 288 298 318 294 327 311 291 312 299 321 285 275 202 205 206 199 194 188 187 191 192 187 186 193 193 190 191 187 183 189 190 187 191 190 194 201 203 197 198 201 202 202 202 199 203 201 197 198 199 202 205 204 198 183 170 136 96 198 222 230 230
238 279 286 311 288 273 210 173 174 218 146 85 245 241 193 113 117 155 247 331 72 220 269 97 203 275 28 275 316 328 302 278 290 280 282 277 221 207 215 208 201 194 197 196 193 186 183 185 187 190 192 189 189 191 192 194 192 190 189 192 194 194 200 204 200 202 201 199 202 202 201 201 200 200 202 197 197 181 165 146 155 191 209 215 217 217
82 304 282 214 248 297 346 112 330 287 181 208 232 171 171 271 283 322 87 264 275 268 276 293 253 259 181 242 338 275 246 257 258 259 287 268 228 227 222 220 222 220 164 175 186 184 187 189 189 188 188 191 194 196 195 191 183 184 190 193 192 197 202 200 198 202 205 202 204 203 203 199 198 198 195 191 180 164 169 175 205 215 215 169 204 215
6 241 300 340 37 311 353 57 259 296 335 16 58 50 215 125 187 175 193 190 132 267 14 290 343 244 198 213 195 231 227 235 248 262 251 244 229 222 216 209 199 196 196 189 184 187 190 191 189 187 185 184 190 194 192 180 178 191 189 188 196 199 196 196 202 201 205 204 203 206 201 201 198 195 191 185 173 171 182 198 207 220 220 211 201 217
292 87 256 288 319 7 327 11 215 48 13 337 7 308 320 260 216 134 37 149 194 201 207 252 283 280 248 210 184 216 221 221 217 227 233 237 236 228 218 204 201 197 194 192 188 188 189 190 190 191 189 191 188 179 167 176 187 189 179 193 193 192 191 194 199 197 205 196 203 203 201 200 194 194 189 180 167 166 199 203 209 219 219 162 202 195
4 4 276 320 345 297 258 229 197 287 259 212 200 24 294 349 318 295 270 30 53 205 237 183 265 248 269 203 200 209 224 215 220 217 228 233 237 236 220 204 194 202 207 197 193 186 186 185 187 185 180 172 165 174 179 182 175 179 189 194 191 193 197 197 196 197 199 197 197 200 203 201 197 190 181 173 141 148 220 207 206 210 189 203 206 183
100 224 330 290 231 264 268 286 307 264 250 152 78 14 1 54 27 38 301 282 356 259 125 178 313 277 250 286 243 232 241 259 276 254 243 239 237 236 231 211 207 206 203 202 193 189 187 186 183 180 177 179 183 185 181 178 186 190 192 187 191 193 204 198 199 196 194 194 194 200 202 196 192 185 179 167 136 188 221 219 208 196 199 207 206 197
292 61 325 283 277 266 279 272 206 8 77 66 32 40 24 36 24 349 251 263 244 301 322 307 252 258 297 18 341 317 320 313 296 227 234 250 247 247 233 219 212 207 209 201 199 199 188 173 165 168 180 183 182 182 186 189 190 194 192 192 187 198 203 198 197 191 191 195 199 197 191 194 191 185 180 167 159 184 214 218 213 200 205 208 191 195
18 298 90 325 336 325 345 353 359 346 58 76 319 4 41 17 15 312 239 350 304 244 174 182 255 291 296 359 342 5 6 4 332 308 282 254 242 232 235 253 255 247 220 195 197 188 167 165 180 190 186 186 185 184 184 187 193 194 198 190 194 204 199 193 186 184 191 192 194 189 192 195 189 189 184 173 167 188 206 216 211 203 211 205 201 200
144 245 33 327 320 319 309 334 306 312 318 307 182 33 33 24 9 28 14 346 6 280 0 306 285 264 298 321 338 353 356 349 354 347 324 283 264 233 221 202 204 227 230 221 180 162 189 192 184 183 191 189 187 185 186 193 196 199 197 200 200 199 187 187 176 184 185 187 188 190 193 195 191 195 190 174 173 189 202 209 210 201 205 202 210 207
197 16 145 171 179 224 235 224 253 293 332 320 295 311 244 112 50 89 160 314 264 295 301 262 248 299 318 319 335 341 343 337 334 345 348 331 315 298 259 210 191 185 193 208 219 220 152 165 195 197 194 195 189 188 190 191 195 193 194 203 206 204 192 181 175 179 182 184 191 190 198 195 199 195 189 175 174 187 198 204 212 210 200 197 205 205
48 286 255 219 223 232 226 217 228 180 259 275 297 302 158 157 150 123 176 254 210 339 283 231 296 323 300 301 320 335 325 321 326 335 335 336 328 306 297 294 193 176 179 165 179 190 200 202 195 196 199 196 197 193 196 196 192 189 189 198 196 191 193 185 176 177 180 182 191 200 203 203 196 193 190 172 168 183 195 201 207 217 222 184 184 197
251 242 261 197 255 245 214 239 239 234 226 238 267 279 289 255 172 221 223 200 184 209 266 294 302 293 290 288 308 304 301 308 298 310 305 277 283 332 308 282 260 225 184 180 201 203 211 204 199 201 199 201 194 196 199 196 194 188 194 189 177 176 190 187 181 178 180 185 196 207 206 195 190 188 187 171 166 180 191 200 206 215 223 228 217 188
30 254 245 212 259 283 273 266 263 255 257 254 238 252 260 270 258 220 238 206 189 229 248 267 278 277 272 288 295 281 281 289 294 292 304 337 348 326 325 295 273 253 224 210 204 203 209 214 207 201 199 197 198 201 199 197 191 187 188 187 174 178 179 163 191 183 185 194 205 206 193 187 185 189 182 177 176 179 185 191 199 205 218 228 234 239
142 270 174 270 302 271 268 274 275 257 254 264 262 255 256 263 265 242 243 235 191 231 242 248 257 270 268 248 268 278 295 296 307 327 317 306 305 319 317 278 279 282 263 245 224 209 207 218 226 210 201 203 201 202 198 191 185 179 185 180 174 179 175 174 186 197 194 205 206 194 184 183 189 180 190 194 179 174 180 188 187 195 206 216 227 235
58 262 4 327 277 281 250 236 246 264 269 265 271 265 257 253 260 256 244 222 185 219 217 214 235 254 268 263 277 281 295 292 286 285 288 297 304 289 144 256 273 267 269 268 253 230 211 210 214 217 213 208 201 191 186 189 185 175 201 178 175 170 159 180 194 202 207 212 199 189 187 190 183 189 195 184 191 184 181 175 180 189 196 201 211 223
191 172 270 239 267 258 263 252 270 305 339 290 254 250 244 245 246 261 259 261 246 239 250 225 242 237 238 234 245 271 275 277 283 265 268 274 277 276 282 273 258 265 260 246 248 247 231 218 211 211 212 192 188 192 200 182 169 199 199 181 163 144 165 186 199 208 215 212 205 200 190 184 188 195 195 196 193 184 172 175 179 185 188 200 200 187
182 204 235 145 204 256 279 22 313 302 275 248 227 233 231 235 236 241 250 248 261 226 239 240 260 285 257 255 248 255 252 245 253 265 249 236 245 280 294 273 256 244 254 260 226 207 229 228 211 211 206 199 194 194 180 170 192 208 180 157 143 162 174 184 205 208 216 208 210 206 194 190 192 198 201 193 182 176 181 180 190 191 192 180 171 191
190 183 219 170 212 250 299 34 322 222 249 256 301 281 228 234 244 252 274 287 286 278 279 283 276 274 263 247 244 250 253 252 246 243 248 240 240 263 263 246 246 229 189 204 285 257 197 195 208 198 189 184 167 154 147 168 180 159 140 150 160 172 177 193 203 213 215 212 210 201 200 196 198 202 196 183 177 177 189 196 193 186 186 182 186 191
218 192 185 243 198 324 316 200 150 236 236 289 283 275 266 230 254 277 284 269 260 260 262 269 271 268 268 266 259 256 259 263 269 253 246 244 238 237 240 231 219 212 194 183 164 207 282 243 198 184 181 171 134 128 126 132 132 125 132 131 149 160 178 188 206 223 215 221 215 205 199 195 200 203 190 179 177 182 193 199 196 192 185 183 195 201
209 121 155 254 145 209 196 182 226 309 315 295 290 6 90 296 328 317 290 283 256 265 255 265 276 281 276 270 267 268 270 282 279 267 244 240 237 223 222 238 223 206 206 195 160 160 171 195 269 236 170 144 132 125 126 136 126 121 126 121 121 125 135 155 206 231 228 234 229 212 198 195 198 200 193 181 181 190 195 196 202 195 171 182 194 192
179 187 188 174 241 183 243 296 316 7 274 272 198 257 276 198 136 155 320 292 255 257 271 275 280 286 292 298 304 303 339 295 269 263 253 234 228 229 221 219 239 240 234 216 192 153 146 131 282 277 159 115 94 101 122 121 118 109 95 90 99 106 131 170 226 223 221 234 226 215 202 199 197 199 193 184 193 197 199 196 194 189 179 186 188 197
199 191 152 185 234 80 193 212 232 219 241 239 268 249 266 319 341 321 21 286 339 13 8 357 338 328 327 329 322 329 310 269 266 265 278 260 247 229 226 219 214 209 202 189 171 172 170 148 171 193 146 119 104 122 111 107 98 87 77 65 73 93 84 252 257 255 255 266 255 235 215 200 200 201 195 196 202 197 192 191 194 187 177 190 187 202
125 182 155 213 229 231 244 243 244 211 253 250 208 270 291 312 266 348 322 280 69 335 4 350 337 328 329 327 320 310 283 280 280 300 339 302 260 233 223 228 222 217 215 195 190 183 183 173 170 180 169 164 167 172 154 142 125 113 109 102 95 56 330 285 287 293 298 298 284 264 232 208 205 204 199 205 202 193 196 180 165 176 182 188 188 187
147 192 189 217 217 225 222 248 283 275 269 270 271 269 269 246 128 217 230 265 286 317 325 334 313 309 314 311 316 303 280 268 294 317 321 309 297 280 260 251 243 224 219 216 211 208 182 178 179 177 176 172 156 151 136 127 127 136 144 155 148 170 206 209 195 195 304 316 301 280 252 223 213 210 212 207 200 188 173 170 183 178 178 180 175 169
263 124 261 218 225 213 204 232 241 268 260 254 246 229 214 103 242 217 236 267 305 311 314 310 298 298 303 288 283 273 283 292 290 292 296 295 291 286 276 256 247 248 245 236 228 211 191 174 174 167 154 149 149 140 131 124 119 125 130 119 159 216 202 148 170 165 164 225 241 254 256 246 239 224 218 201 173 174 190 190 181 182 178 162 162 177
197 160 211 199 184 193 195 225 237 247 291 83 72 26 38 177 222 262 306 300 299 301 305 302 289 285 291 292 274 265 286 296 298 297 288 287 286 282 275 263 252 243 228 201 194 197 176 177 171 170 166 156 147 141 138 123 119 117 109 143 206 215 116 185 151 151 157 253 267 255 244 241 231 220 213 199 192 188 195 177 174 176 166 161 165 176
157 210 207 239 174 182 187 206 214 210 183 205 65 204 228 231 293 300 296 296 301 303 301 296 286 275 277 274 287 288 281 289 297 303 307 301 291 280 270 259 244 234 226 218 203 183 170 169 168 161 160 152 150 148 144 128 127 132 143 181 204 163 156 144 136 118 140 183 202 224 240 232 223 213 215 200 190 196 183 176 173 167 173 166 166 173
195 211 182 220 223 195 215 218 237 233 227 241 243 254 260 269 255 258 272 277 294 298 293 284 286 287 266 275 281 281 286 277 278 291 301 300 300 295 285 264 238 226 212 199 187 174 167 161 161 158 152 149 140 142 139 134 134 135 148 215 125 162 156 129 117 129 157 212 249 215 220 217 210 205 206 197 181 188 188 168 157 162 162 155 160 171
255 216 202 228 258 270 262 247 262 275 275 281 283 278 276 287 283 280 281 286 276 278 287 284 287 286 284 276 277 280 275 278 283 287 290 293 295 293 287 274 252 234 213 195 177 175 167 158 154 150 145 140 144 140 140 124 117 133 192 182 170 178 153 126 123 118 130 123 95 61 92 119 114 149 180 186 193 187 177 168 166 158 145 152 164 174
250 185 207 241 256 349 264 119 206 240 252 266 280 287 274 273 278 277 275 266 271 282 286 282 279 281 281 281 275 278 282 282 283 281 279 284 290 300 303 279 247 212 184 175 169 161 155 153 147 148 146 146 161 147 124 136 168 181 174 162 176 158 150 129 119 120 114 101 95 92 104 113 119 105 104 124 126 130 143 145 148 143 147 154 164 170
279 202 231 243 245 230 260 259 250 243 243 258 274 290 289 286 284 277 253 262 274 277 275 278 280 281 280 278 273 280 286 286 280 275 272 275 289 298 310 306 259 131 117 133 129 131 119 125 144 145 147 147 146 150 157 173 173 167 158 162 160 154 131 128 128 125 119 113 105 96 110 112 130 124 116 116 126 129 117 128 151 157 165 171 173 172
226 97 239 180 222 251 263 268 279 285 280 269 265 260 257 259 270 280 283 286 285 287 285 279 268 267 269 268 271 281 295 294 282 272 266 270 273 288 305 320 308 222 150 136 130 125 124 124 119 99 94 130 156 170 173 169 163 157 156 153 152 145 124 120 120 116 119 122 106 97 88 96 81 94 114 123 112 111 139 155 168 169 187 221 172 180
235 235 213 278 265 258 251 261 234 280 281 275 240 254 270 267 265 278 288 288 286 287 287 289 288 277 271 272 265 258 283 309 318 299 253 241 259 262 231 22 319 327 32 64 104 114 114 110 104 94 266 305 30 56 70 147 176 173 158 148 151 141 121 128 121 120 126 125 115 117 100 85 78 75 75 81 81 95 97 89 137 145 156 172 237 248
234 236 217 230 236 256 254 248 220 235 260 263 275 278 278 282 282 286 288 287 288 283 284 289 292 295 293 286 261 243 261 302 327 341 319 277 276 291 297 279 126 345 357 126 111 103 109 120 122 136 153 164 274 240 203 213 202 168 175 163 157 143 137 134 125 126 137 121 113 112 112 103 86 63 66 66 81 75 51 20 35 90 111 180 180 186